Weather Service Report


719 
ASUS45 KCYS 210410
RWRWY 

WYOMING REGIONAL WEATHER ROUNDUP
NATIONAL WEATHER SERVICE CHEYENNE WY
1000 PM MDT MON APR 20 2015

NOTE:  "FAIR" INDICATES FEW OR NO CLOUDS BELOW 12,000 FEET
WITH NO SIGNIFICANT WEATHER AND/OR OBSTRUCTIONS TO VISIBILITY.

WYZ001-210500-
YELLOWSTONE NATIONAL PARK
  
CITY           SKY/WX    TMP DP  RH WIND       PRES   REMARKS
LK YELLOWSTONE   N/A     29  21  72 CALM      30.00S                  
W YELLOWSTONE  NOT AVBL                                               

$$
WYZ002>013-054>058-071-098>099-210500-
NORTHERN WYOMING
  
CITY           SKY/WX    TMP DP  RH WIND       PRES   REMARKS
JACKSON        FAIR      39  25  56 NE3       29.95R                  
CODY           MOCLDY    45  27  49 W3        29.89S                  
GREYBULL       FAIR      48  20  32 W9        29.86R                  
WORLAND        FAIR      43  20  39 S7        29.88R                  
SHERIDAN       FAIR      36  26  67 S5        29.88S WCI  32          
BUFFALO        FAIR      38  22  52 SW7       29.91R WCI  33          
GILLETTE       FAIR      27  19  72 SW3       29.89R                  
HULETT         FAIR      36  19  51 E5        29.91S WCI  32          
NEWCASTLE      FAIR      39  18  41 NW5       29.89S                  

$$
WYZ014>020-022>026-101>103-210500-
CENTRAL WYOMING
  
CITY           SKY/WX    TMP DP  RH WIND       PRES   REMARKS
BIG PINEY      FAIR      36  16  44 N12       29.97R WCI  28          
PINEDALE       FAIR      36  19  51 NW5       29.97S WCI  32          
DUBOIS         FAIR      39  14  35 CALM      29.95R                  
LANDER         FAIR      43  25  49 SW10      29.92R                  
RIVERTON       FAIR      48  20  32 NE5       29.93R                  
CASPER         FAIR      34  24  67 E5        29.93R WCI  30          
DOUGLAS        FAIR      38  26  62 N7        29.92S WCI  33          

$$
WYZ021-027>030-104>119-210500-
SOUTHERN WYOMING
  
CITY           SKY/WX    TMP DP  RH WIND       PRES   REMARKS
EVANSTON       FAIR      46  22  38 W8        29.99R                  
KEMMERER       FAIR      41  23  48 N8        29.99R                  
FORT BRIDGER   CLEAR     46  23  39 W7        30.01R                  
ROCK SPRINGS   CLOUDY    46  22  38 N5        29.95R                  
DIXON          FAIR      40  30  67 NE7       29.97S                  
RAWLINS        FAIR      33  25  72 N3        29.97R                  
SARATOGA       FAIR      34  27  75 CALM      29.98S                  
LARAMIE        FAIR      26  21  81 CALM      29.97R                  
CHEYENNE       FAIR      35  26  69 W10       29.96R WCI  27          
TORRINGTON     FAIR      41  24  51 W7        29.90R                  
PINE BLUFFS    FAIR      32  28  86 W10       29.94R WCI  24          

$$

Return to Home page


Western Regional Climate Center, wrcc@dri.edu